Simultaneous Nadir Overpasses (SNOs) Predictions

Prediction of SNOs between NOAA-19 and METOP-C Satellite Orbit:

Table of predicted SNOs for the next 14.0 days since TLE Epoch: 1/2/2021
Index Date (NOAA-19) Time (NOAA-19) Lat,Lon (NOAA-19) SZA (NOAA-19 ) Date (METOP-C) Time (METOP-C) Lat,Lon (METOP-C) SZA (METOP-C ) Distance(km) Time Diff (sec)
1 01/12/2021 19:06:32 80.33, -80.37 102.59 01/12/2021 19:07:33 80.34, -80.33 102.62 1.97 61
2 01/12/2021 19:57:28 -80.33, 86.75 77.43 01/12/2021 19:58:15 -80.32, 86.71 77.43 2.01 47
3 01/12/2021 20:48:32 80.32,-105.72 102.58 01/12/2021 20:48:55 80.33,-105.80 102.59 2.12 23
4 01/12/2021 21:39:28 -80.33, 61.40 77.44 01/12/2021 21:39:36 -80.33, 61.56 77.42 3.09 8
5 01/12/2021 22:30:33 80.33,-131.40 102.56 01/12/2021 22:30:17 80.32,-131.26 102.56 2.68 16
6 01/12/2021 23:21:28 -80.32, 36.05 77.45 01/12/2021 23:20:58 -80.32, 36.09 77.45 1.04 30
7 01/13/2021 00:12:33 80.32,-156.75 102.55 01/13/2021 00:11:39 80.31,-156.73 102.53 1.02 54



Historial Predications of SNOs between NOAA-19 and METOP-C
